GFSSE_850_spd_009.txt.gz
Wind_Speed
4 9 9 7 7 7 6 6 4 5 4 4 4 4 4 5 8 10 10 13 11 11 8 5 5 6 9 12 12 12 11 10 9 9 7 6 5 5 5 4 3 3 4
4 10 10 8 7 7 5 5 2 3 4 3 3 3 5 7 9 10 12 9 10 5 4 3 9 13 15 10 11 10 10 10 10 8 7 6 4 5 5 8 6 5 5
9 10 10 9 8 8 6 3 3 3 4 4 4 5 6 8 10 10 10 10 9 6 9 15 19 21 20 10 12 11 10 10 9 7 8 7 6 5 5 8 9 7 7
12 13 13 13 12 11 8 5 4 5 3 2 1 2 4 6 8 7 9 9 11 14 18 21 20 18 11 9 10 11 11 12 10 9 9 8 8 6 5 7 10 10 9
15 15 14 14 13 12 11 7 7 5 2 1 1 3 4 6 7 8 10 12 14 15 14 12 12 9 7 8 9 8 10 10 11 12 12 12 12 8 6 5 9 12 12
15 16 16 14 12 9 7 5 3 2 2 2 3 3 4 5 6 7 7 9 10 10 9 9 8 9 11 10 9 13 17 20 17 16 14 15 15 12 9 9 7 13 14
16 16 14 12 9 7 5 4 3 3 3 3 4 5 6 7 6 6 6 7 8 8 8 7 8 8 9 10 12 13 13 12 13 12 12 15 15 15 15 12 12 12 14
14 13 13 10 8 7 5 3 3 3 4 4 4 5 5 6 6 6 8 9 11 13 13 12 10 10 10 9 9 9 11 14 16 18 16 14 15 16 17 16 14 13 14
12 10 9 7 6 6 5 4 2 1 2 2 4 4 5 7 8 9 9 9 10 10 11 9 10 11 12 12 10 10 9 8 8 10 15 15 15 16 16 16 14 12 15
10 8 6 5 4 5 6 6 4 3 2 0 2 4 5 7 8 9 9 9 10 11 12 11 11 12 12 12 11 11 11 9 7 7 9 12 13 16 17 18 14 15 14
8 7 4 2 2 6 6 6 4 4 2 3 4 5 6 7 8 9 9 10 12 13 14 14 14 13 12 12 12 13 12 12 11 10 12 13 12 13 13 19 16 16 18
8 7 4 2 2 6 6 5 4 3 3 4 6 7 8 9 10 10 11 12 13 15 16 16 16 16 14 12 11 11 12 13 14 14 13 13 13 12 12 12 15 15 15
9 8 4 3 2 4 5 5 3 3 4 5 7 8 10 11 12 13 14 16 17 19 19 18 19 19 18 15 14 14 14 15 15 15 14 13 16 16 15 15 16 16 15
9 7 7 7 3 2 4 7 6 6 6 7 9 10 12 13 13 14 16 18 19 20 20 19 19 19 19 19 18 15 14 14 14 14 13 12 12 12 15 15 15 15 16
12 11 10 10 6 3 5 7 6 6 7 9 10 11 12 13 14 16 18 18 19 20 20 20 20 19 19 18 17 16 14 12 10 10 10 10 11 12 12 14 17 17 18
11 12 12 12 7 3 6 6 6 6 6 8 10 11 12 14 16 18 18 18 18 19 20 21 21 20 19 19 18 17 16 14 12 10 9 9 10 10 10 11 13 16 20
14 14 14 13 8 4 4 5 5 6 6 8 10 12 13 13 15 17 19 19 20 20 20 21 20 20 20 19 18 17 17 16 15 13 12 10 10 11 12 11 10 12 17
14 15 16 14 8 4 3 3 4 6 7 9 12 14 16 18 20 21 21 21 20 21 22 22 21 22 21 20 18 18 18 18 16 14 12 12 12 11 11 12 13 12 12
12 15 16 12 6 5 3 3 3 5 8 9 10 12 14 17 19 23 25 26 26 25 25 24 23 22 22 22 22 21 21 20 19 17 13 11 14 14 15 14 14 15 15
10 13 13 10 7 5 4 6 7 9 10 12 15 18 21 22 24 26 28 30 30 31 31 29 29 28 26 24 25 25 24 24 23 22 19 13 16 17 15 16 16 15 16
5 10 9 7 7 6 8 9 10 12 14 17 20 21 24 25 26 27 29 32 34 37 39 39 35 33 31 30 28 28 29 29 27 26 23 19 18 22 23 18 17 18 18
7 8 9 10 10 11 12 14 16 17 18 20 22 25 27 28 30 33 33 34 34 36 37 40 43 42 40 37 34 25 20 22 24 26 26 23 21 21 23 23 20 19 19
5 7 8 9 10 12 13 13 13 15 18 23 28 32 33 30 28 28 29 31 33 33 34 36 40 46 48 44 41 33 18 22 17 20 26 25 23 23 25 23 22 21 19
5 5 7 6 5 5 9 14 18 23 26 27 28 28 29 28 31 32 34 34 34 35 38 37 37 41 44 45 40 44 40 36 22 22 24 26 27 24 26 25 23 23 20
2 2 3 4 7 13 19 23 26 27 27 28 30 35 36 37 36 37 36 35 35 34 36 37 39 39 38 41 41 33 31 34 29 21 23 19 19 19 22 25 24 24 23
4 3 4 10 17 23 27 29 28 26 28 32 35 39 41 41 41 40 38 34 32 30 29 29 29 24 16 24 29 27 27 23 19 11 11 14 16 18 20 25 25 23 26

GFSSE_850_spd_012.txt.gz
Wind_Speed
7 7 13 10 7 5 4 2 3 2 1 3 4 3 5 5 6 7 9 10 9 9 5 2 3 5 7 10 10 9 8 8 8 8 8 6 5 4 5 2 1 5 3
8 8 9 6 5 4 5 3 2 1 2 4 5 5 5 6 6 7 8 7 8 5 5 6 7 11 15 15 13 12 11 10 9 8 7 5 6 5 6 6 4 7 4
11 11 11 10 9 6 6 5 3 2 1 2 4 4 6 5 6 7 7 7 9 7 9 11 17 20 20 17 14 14 13 12 10 8 8 3 4 7 6 7 7 9 7
15 13 12 13 12 9 8 6 5 4 4 4 4 4 5 5 6 7 7 8 10 13 16 18 19 20 16 14 12 12 14 13 11 10 6 6 6 8 8 7 7 9 10
15 15 15 14 13 10 9 7 5 3 2 2 2 3 4 5 6 7 9 11 13 15 15 14 15 14 12 9 9 10 11 12 12 10 8 8 7 11 9 8 8 11 12
12 15 16 14 12 10 7 5 3 2 2 3 4 5 5 4 4 6 7 9 10 12 12 13 13 13 12 11 10 10 13 16 17 10 10 10 10 13 11 10 8 12 13
13 15 15 12 10 8 6 4 2 3 3 4 4 5 6 7 6 6 6 7 8 9 9 9 9 9 10 11 11 11 14 13 8 9 10 10 11 16 15 13 12 13 13
14 15 13 11 9 6 4 3 2 3 3 4 5 6 6 6 6 6 7 7 8 9 10 10 10 10 10 11 10 9 9 9 7 9 9 9 16 18 19 19 17 15 16
12 10 9 9 7 5 5 3 2 2 2 2 3 4 4 6 8 8 9 10 9 10 11 11 12 12 12 12 12 12 11 10 6 5 6 7 14 15 16 16 18 19 16
9 8 8 6 5 5 4 4 1 0 1 0 2 4 5 7 8 9 9 9 10 12 13 14 14 14 14 13 12 12 11 9 5 7 7 10 11 15 17 17 20 19 14
9 8 6 3 3 4 4 3 2 2 2 3 4 5 6 6 9 10 11 12 13 14 15 16 16 16 16 15 14 13 12 7 7 7 7 13 13 13 13 14 18 18 23
10 9 6 4 1 3 4 4 3 2 2 3 5 8 8 9 10 11 13 13 14 16 17 17 18 18 15 9 10 12 8 12 9 8 9 14 14 14 14 13 13 14 21
9 9 7 5 3 0 2 3 3 3 4 5 7 8 9 10 10 11 10 11 14 17 14 16 18 13 15 16 12 13 13 13 9 8 12 13 12 15 17 15 14 14 13
10 9 9 8 5 2 2 3 4 4 5 5 7 10 10 9 10 12 12 13 14 13 15 14 13 18 19 19 17 15 14 11 8 8 11 12 12 12 13 15 15 15 15
11 10 10 9 8 6 3 4 3 3 4 5 7 8 9 8 10 11 13 14 14 13 14 14 14 15 16 17 16 15 12 11 11 7 7 13 11 11 11 12 14 16 17
11 12 11 12 11 7 4 4 4 3 3 5 5 6 9 10 10 11 12 12 13 13 13 14 14 16 15 15 15 16 15 11 9 10 7 10 12 11 11 12 13 15 17
12 12 13 14 13 8 6 4 3 2 1 2 3 7 9 10 12 15 14 14 14 15 18 16 16 16 16 14 16 16 16 14 11 12 11 8 9 11 11 11 13 14 16
12 14 14 17 14 8 7 6 4 2 1 4 7 9 11 13 14 16 16 17 17 21 18 18 17 17 17 16 16 15 15 14 13 13 12 11 9 8 10 11 12 12 14
12 13 13 15 11 9 9 8 6 4 5 6 9 12 14 16 17 19 22 23 22 22 23 21 20 20 20 19 18 18 17 17 16 14 14 13 12 11 9 11 11 13 14
10 8 8 9 11 12 12 10 8 8 9 10 12 16 18 20 22 24 25 27 27 22 23 23 24 24 24 24 24 23 21 20 19 19 17 16 15 12 10 8 9 9 14
3 5 5 9 13 12 9 8 6 7 10 10 10 17 19 21 27 30 29 26 26 23 26 28 26 27 27 27 25 27 27 25 24 24 22 21 19 17 15 11 10 9 10
6 7 7 8 10 10 10 12 13 14 11 15 14 19 24 30 29 27 27 27 26 24 24 26 27 27 29 27 30 29 31 31 28 25 24 25 23 21 18 15 13 17 16
5 5 5 7 8 8 7 6 8 9 12 11 19 20 26 29 29 28 27 28 31 29 26 26 26 27 31 30 30 30 25 33 30 27 22 23 23 21 19 17 14 15 15
1 1 1 2 5 8 11 14 19 15 15 18 17 18 25 26 29 32 32 33 33 30 28 25 25 26 26 33 30 33 38 39 37 30 22 23 25 23 20 17 16 14 12
5 6 7 8 10 15 18 20 16 14 14 15 18 21 23 24 28 30 32 36 35 33 31 32 30 25 24 28 29 29 30 32 33 32 38 23 22 22 21 17 16 16 15
6 6 9 11 12 19 22 24 23 20 19 19 22 25 25 29 30 29 30 35 31 27 20 16 14 12 10 13 13 12 14 14 18 22 29 35 31 22 21 18 17 17 17

GFSSE_850_spd_015.txt.gz
Wind_Speed
9 4 8 4 4 4 5 5 4 4 4 1 2 2 1 1 2 5 7 6 4 6 6 6 6 6 7 9 10 13 12 11 10 9 9 8 8 7 6 5 3 6 4
11 7 8 6 6 5 5 5 4 3 3 3 3 2 2 2 4 6 7 6 6 6 6 7 9 11 12 16 18 16 15 16 13 11 9 7 6 8 7 5 3 3 4
12 8 8 9 8 7 6 5 4 3 2 1 1 3 4 4 6 7 8 9 9 9 9 11 13 17 18 19 17 15 15 15 13 11 8 4 12 11 11 6 6 8 6
14 11 8 11 10 8 6 4 3 2 2 0 1 3 4 5 6 7 8 9 11 13 15 16 17 18 16 14 13 12 12 13 13 12 8 6 7 11 10 7 7 7 7
14 9 14 14 12 9 7 5 3 2 1 1 2 3 4 5 6 7 9 10 12 13 14 13 14 15 15 13 13 13 13 11 11 11 9 13 9 10 13 10 8 8 8
13 11 14 13 11 9 7 4 2 2 4 4 5 5 6 6 6 7 8 8 9 9 10 11 12 12 13 12 12 12 14 14 14 12 14 16 14 17 15 12 11 12 9
13 12 12 11 10 7 6 4 4 4 4 4 4 5 5 6 6 7 7 8 8 9 9 10 10 10 10 10 10 11 11 12 12 9 11 13 14 13 17 15 14 13 12
12 10 11 10 9 6 4 4 3 3 3 4 5 5 5 6 7 7 8 8 8 9 10 12 12 12 11 11 11 10 10 10 6 10 13 12 17 16 18 16 16 16 16
10 9 7 6 6 6 6 6 4 3 3 4 5 5 6 7 8 9 9 9 10 11 12 14 14 14 14 13 13 12 11 10 5 8 9 15 18 18 19 17 16 17 19
10 9 8 6 3 3 7 6 3 4 3 3 5 6 8 9 11 10 10 10 12 13 14 15 16 15 15 15 14 13 12 9 6 7 9 16 17 17 15 18 18 17 18
9 8 7 3 3 3 3 6 6 5 5 6 9 9 9 7 8 8 15 12 13 14 15 17 17 17 16 14 15 14 12 5 8 7 9 16 19 16 15 15 15 17 18
10 8 6 5 2 2 3 3 2 2 2 2 3 5 7 8 8 12 12 17 17 16 18 16 17 17 13 8 14 16 10 11 11 10 13 19 17 16 16 16 14 16 15
10 9 7 5 2 2 2 3 2 3 4 4 7 7 7 9 8 10 10 12 13 16 12 14 14 12 11 12 11 11 12 11 10 11 15 20 16 14 14 16 17 15 16
9 8 7 5 4 1 1 3 2 3 3 4 5 8 8 8 9 10 10 12 12 12 14 13 13 14 14 13 13 13 11 11 9 11 16 18 14 13 14 14 14 15 17
9 8 6 7 7 4 2 2 3 2 2 3 3 5 6 6 9 10 11 12 13 14 14 14 15 14 14 15 14 13 12 12 12 11 11 18 15 13 12 12 13 14 15
9 8 9 9 8 6 3 4 2 2 2 3 2 3 6 7 8 10 11 12 13 14 15 16 16 16 15 14 15 15 14 13 13 13 11 17 17 15 13 13 13 14 14
10 9 8 10 10 8 4 3 2 3 3 3 3 5 7 9 9 12 13 14 15 17 19 19 19 19 19 18 17 18 16 16 14 14 14 12 16 16 15 15 15 16 17
9 8 9 10 11 9 6 5 4 4 4 4 6 7 9 9 13 17 15 16 17 20 20 21 21 21 21 21 21 20 18 19 18 18 17 15 15 15 16 17 16 15 17
9 8 9 10 9 7 6 4 5 6 5 7 8 9 10 11 13 17 19 20 21 21 23 22 23 23 24 24 25 25 24 22 21 20 20 19 20 20 16 19 18 15 15
4 3 5 7 7 7 5 5 6 7 8 8 9 10 11 12 13 17 18 21 22 20 21 23 25 25 28 29 29 30 30 28 26 25 24 23 22 22 21 20 21 19 16
5 5 5 6 9 3 3 4 6 7 10 11 11 13 12 13 18 18 17 18 19 20 22 25 26 26 28 28 30 31 33 33 34 32 29 26 25 24 23 20 21 15 17
9 7 5 3 2 1 3 3 7 10 9 11 11 13 14 16 21 21 19 19 20 22 26 27 28 29 30 28 29 31 33 33 33 36 38 34 32 29 28 24 23 19 19
8 7 6 4 4 2 1 5 6 9 12 15 16 18 17 20 21 21 22 23 23 23 25 26 27 27 31 31 29 31 31 33 30 31 33 37 33 33 33 30 27 24 21
8 7 6 4 3 5 7 6 13 12 15 17 17 18 20 21 22 22 24 24 25 25 24 25 24 26 26 31 29 30 33 35 37 38 41 31 32 32 31 32 29 25 22
6 5 4 4 6 7 8 14 13 12 14 16 17 20 22 20 21 23 23 24 25 26 22 21 20 19 18 21 22 23 25 29 27 22 29 31 29 30 30 31 27 23 22
4 4 6 7 9 11 11 11 13 14 15 18 19 21 20 22 23 23 24 25 24 19 18 17 17 17 17 16 20 20 18 15 20 15 22 22 24 25 31 24 20 23 21

GFSSE_850_spd_018.txt.gz
Wind_Speed
5 5 9 9 9 9 9 9 7 6 5 4 3 4 6 6 6 6 8 8 7 7 8 9 9 10 12 13 13 14 15 14 14 12 9 9 10 9 7 4 1 5 8
8 12 11 9 9 10 9 7 6 6 6 5 5 4 5 5 5 5 6 7 7 8 9 10 11 13 16 19 21 21 17 14 15 12 9 7 7 9 8 7 3 4 3
5 12 11 10 9 9 8 7 6 6 5 5 4 5 6 7 7 7 8 9 9 9 11 12 13 13 14 15 16 17 18 16 13 11 8 7 9 11 7 7 4 2 2
20 7 13 12 11 11 9 8 7 7 6 6 6 6 6 6 7 7 8 10 12 12 12 13 13 13 13 13 13 13 13 14 13 12 8 6 14 12 6 7 6 3 3
8 12 16 15 14 12 10 9 7 5 6 6 5 5 5 5 6 7 7 8 10 11 12 12 13 13 13 13 13 13 13 12 11 11 9 12 18 9 7 10 8 4 2
12 17 17 15 13 11 9 6 6 5 4 4 4 4 5 4 5 6 7 8 9 10 11 12 13 13 12 12 12 12 12 12 12 9 7 17 17 6 10 10 9 7 5
15 16 15 13 11 9 6 6 5 4 4 4 5 5 5 6 7 7 8 9 10 10 11 12 12 13 13 13 13 12 11 10 9 6 5 18 15 15 9 11 13 10 9
13 14 13 12 9 7 7 6 5 5 5 6 6 6 7 8 9 9 8 8 9 10 11 12 12 12 13 13 13 12 12 11 7 3 9 14 17 16 12 13 15 13 12
12 12 12 10 9 9 9 7 6 6 7 6 7 8 9 9 11 10 10 8 10 11 12 13 14 15 14 14 14 13 11 11 6 1 12 14 16 20 23 21 18 13 14
12 10 6 8 10 7 8 8 7 7 8 9 10 12 13 12 17 15 14 18 16 15 15 17 17 18 16 15 13 13 13 6 5 6 11 13 16 19 20 20 16 16 15
11 9 7 7 5 4 6 9 7 9 10 10 11 14 12 12 11 15 16 19 18 18 18 15 18 18 14 9 12 14 13 5 6 7 14 16 18 19 19 16 15 15 15
10 7 10 4 3 8 4 8 9 10 7 6 7 7 5 9 7 12 13 17 17 20 18 15 19 17 13 10 11 12 10 10 16 11 15 18 20 19 17 15 14 14 15
10 9 10 10 6 8 3 7 4 5 2 4 2 7 5 10 4 6 8 12 16 17 15 20 17 17 15 23 15 15 16 17 12 10 17 19 23 20 16 14 13 14 17
13 14 10 6 5 6 5 3 5 3 1 2 4 5 6 3 5 6 6 10 10 11 14 15 16 16 18 17 20 20 17 15 13 12 17 18 22 21 17 15 14 13 14
13 14 14 13 7 2 1 2 1 5 3 4 1 7 7 7 9 9 10 10 10 12 14 15 18 18 18 18 17 17 20 18 17 17 17 19 22 21 18 16 15 14 14
12 14 13 12 8 5 4 6 2 1 0 3 2 7 8 8 10 12 14 14 14 13 16 22 20 22 23 22 20 16 20 23 21 19 19 20 23 22 20 18 17 16 15
10 8 15 8 12 6 5 4 2 5 4 2 4 10 11 10 11 13 17 18 17 17 22 26 21 22 23 23 24 24 22 23 24 22 19 23 23 23 21 20 19 19 19
9 3 3 8 5 7 4 4 3 5 7 3 7 8 11 11 14 17 18 18 19 22 27 28 28 25 24 26 27 26 26 27 25 25 26 25 23 24 24 22 19 20 20
4 4 4 4 4 4 7 3 6 9 7 3 10 8 12 12 12 20 21 21 23 27 29 28 25 24 25 26 28 28 28 27 29 28 28 28 28 23 24 24 24 22 22
3 2 2 6 8 12 5 6 5 7 7 7 7 11 17 18 15 18 22 21 21 26 27 24 25 28 31 32 32 32 33 34 33 33 28 31 29 30 28 31 27 26 26
8 9 7 11 7 4 2 5 6 5 7 7 9 14 16 15 23 26 27 24 24 26 25 26 30 32 33 29 31 32 33 33 33 34 34 37 35 34 35 35 36 30 28
10 7 6 3 4 6 0 3 6 7 9 11 12 8 13 24 24 26 24 25 24 26 29 30 25 27 28 25 27 31 33 33 29 31 35 38 40 41 42 39 37 36 28
12 11 8 6 5 3 3 2 5 9 9 11 16 23 26 19 23 23 20 23 26 27 30 33 31 26 29 26 23 24 29 29 28 28 32 28 27 34 36 30 33 39 37
9 8 6 6 4 6 8 7 10 8 11 15 15 16 19 21 20 20 24 26 28 30 32 33 23 25 28 28 29 25 26 28 21 27 29 28 32 29 29 37 34 34 40
8 6 4 4 6 9 14 14 15 17 17 16 17 20 20 18 22 28 26 28 31 33 23 21 19 18 19 18 19 28 31 32 32 23 26 21 26 25 25 27 35 31 24
5 6 7 8 9 11 12 16 14 14 15 16 17 18 18 24 31 29 27 27 23 20 20 23 25 27 28 29 23 23 29 27 26 26 29 35 31 30 30 26 28 32 33

GFSSE_850_spd_021.txt.gz
Wind_Speed
12 14 12 12 12 12 11 10 10 9 9 9 9 10 10 9 9 10 10 9 8 9 9 9 9 9 9 10 10 11 13 14 15 14 9 5 3 4 4 3 1 2 5
14 16 13 12 11 11 11 10 9 9 10 10 9 9 9 9 10 10 10 10 10 11 11 11 12 12 13 14 13 12 11 9 8 9 8 4 3 4 4 2 1 3 1
16 17 14 13 12 12 11 10 9 10 10 10 9 9 9 8 8 8 8 9 9 10 11 11 11 10 10 11 12 13 13 11 8 6 3 3 4 2 2 3 1 2 1
17 16 15 13 13 12 11 11 10 9 9 8 7 7 7 7 7 7 8 9 10 11 11 12 12 12 11 11 11 11 11 11 10 7 3 1 3 7 9 3 3 3 3
14 17 17 16 15 14 12 10 9 8 7 7 7 8 8 8 9 10 10 10 11 11 12 12 13 13 12 12 12 12 11 9 8 7 5 8 9 10 8 1 6 4 6
20 20 18 17 14 12 10 9 7 6 7 7 8 8 9 9 10 10 9 9 10 10 10 11 12 13 13 12 12 12 11 9 7 4 3 5 10 6 5 1 5 5 9
22 19 17 14 12 10 8 6 6 6 7 8 8 9 8 8 8 8 9 9 9 9 10 11 12 12 13 13 13 12 11 9 6 5 2 5 10 9 12 13 8 8 11
19 18 15 13 10 9 7 6 7 9 10 10 10 9 8 9 10 11 10 11 11 12 12 13 13 14 14 14 13 12 11 9 5 3 5 6 11 12 11 13 12 13 14
17 17 14 11 9 9 10 10 10 12 12 11 11 11 11 11 12 14 14 14 14 14 14 14 15 16 14 13 12 12 12 9 3 2 5 10 11 12 14 16 17 14 14
12 10 10 8 9 11 12 10 11 12 11 12 13 12 11 11 12 15 13 16 16 17 17 13 17 16 12 9 9 11 12 4 5 6 6 10 12 14 16 19 16 14 13
11 9 10 8 8 8 12 14 12 9 9 9 9 10 8 8 8 12 13 14 15 15 14 16 20 16 14 12 15 14 10 6 9 9 15 14 16 18 19 18 17 15 14
13 12 11 4 7 8 8 7 7 9 9 9 9 8 5 7 7 9 9 9 13 12 14 16 18 18 17 21 21 18 16 15 16 14 14 13 18 20 20 21 17 15 14
13 18 14 5 12 9 6 6 7 9 6 3 4 4 5 3 0 4 6 9 10 12 14 16 17 19 19 20 21 24 22 16 16 17 16 16 17 23 23 22 18 16 15
17 20 14 7 8 10 7 9 9 10 6 3 3 4 3 2 4 5 6 9 11 10 12 13 16 21 20 19 21 22 23 23 21 16 17 20 21 22 23 22 21 18 17
20 22 18 13 10 7 6 6 9 10 6 7 8 3 4 5 6 6 10 11 12 13 15 17 20 25 22 21 21 21 21 22 22 21 20 20 21 23 23 21 19 19 18
18 24 20 14 12 2 7 4 4 9 6 5 5 6 7 7 7 8 10 12 13 15 16 20 23 27 25 24 24 22 23 24 26 25 23 22 23 24 24 23 21 21 20
17 22 24 18 14 18 12 8 6 7 4 6 7 9 12 12 11 11 13 14 16 18 21 23 27 28 27 27 25 24 24 24 26 29 30 28 27 24 24 24 22 21 22
8 11 17 11 4 10 11 7 6 7 10 5 7 9 7 8 13 14 18 20 20 20 24 27 28 27 26 26 27 28 27 26 27 30 33 33 31 29 27 24 23 23 21
14 10 9 5 2 9 11 8 7 9 9 6 7 9 8 10 12 16 21 22 24 25 27 28 27 25 27 29 31 34 34 32 30 32 32 27 33 33 32 29 26 26 25
11 8 8 6 10 9 9 6 5 5 4 4 4 7 11 16 20 21 27 25 27 28 28 29 30 30 32 35 35 34 33 32 31 29 29 29 31 33 36 35 32 31 31
8 6 7 8 6 4 4 5 5 5 3 5 9 11 11 12 17 24 24 21 24 29 26 29 32 33 32 30 35 36 35 33 32 27 23 26 28 32 38 41 40 39 36
8 6 6 3 1 3 3 3 4 5 3 4 6 6 9 12 15 18 21 26 27 25 29 30 31 34 36 27 27 29 28 32 30 24 22 25 25 22 25 31 38 43 41
8 5 3 4 4 1 2 3 5 8 10 12 14 19 21 23 23 23 27 25 25 31 31 32 33 30 26 28 26 23 19 18 31 32 32 30 32 35 26 26 25 32 40
9 7 8 8 12 15 16 17 16 16 15 14 15 18 21 24 25 26 26 29 34 29 29 27 21 22 25 26 24 24 24 27 17 26 26 29 28 28 26 21 22 24 33
6 7 6 6 12 14 16 17 17 12 12 13 16 20 22 22 25 27 29 27 26 22 20 22 21 25 28 30 29 28 31 31 29 29 32 29 36 32 32 29 22 19 26
5 7 5 2 5 11 7 5 9 12 15 18 22 26 28 30 30 27 21 23 23 26 26 27 28 29 29 27 27 26 25 24 22 20 25 32 33 32 28 26 27 22 18

GFSSE_850_spd_024.txt.gz
Wind_Speed
20 18 14 13 13 12 11 10 10 11 11 11 11 11 11 10 10 9 9 8 8 8 8 8 8 7 7 7 7 8 8 9 9 6 3 2 2 1 1 2 3 1 2
21 19 15 13 12 11 11 10 11 11 11 11 10 10 9 8 8 8 8 8 9 10 11 11 11 11 10 9 8 8 7 6 5 4 2 1 2 6 2 2 2 2 3
19 18 14 12 12 11 11 11 11 10 10 9 8 8 8 8 8 9 9 10 10 9 9 9 10 10 10 10 10 9 7 4 4 3 2 2 2 1 1 4 4 2 5
19 18 16 14 12 11 11 10 9 9 8 8 8 8 8 8 9 9 9 9 9 10 9 10 10 11 11 11 11 10 9 7 4 2 2 3 1 3 7 2 8 8 8
19 19 17 14 13 12 11 9 8 7 8 8 8 8 8 8 7 8 8 9 9 10 10 10 11 12 12 12 11 11 9 6 4 1 2 5 2 1 6 11 7 7 9
21 19 17 15 13 11 9 8 8 7 8 8 8 7 8 8 8 9 9 9 9 9 10 11 12 13 13 12 12 11 10 8 4 1 2 3 3 4 3 2 6 7 8
23 21 18 14 12 10 9 8 8 7 8 8 8 8 8 8 9 9 10 10 11 10 10 11 11 12 11 11 10 9 8 7 3 0 1 2 4 4 4 5 7 9 10
22 19 17 14 11 9 7 5 7 10 10 10 9 7 8 10 11 11 12 11 11 11 11 11 12 12 11 9 8 8 7 5 1 3 2 1 3 6 7 8 10 11 11
19 17 15 12 11 10 9 10 11 12 10 10 9 8 9 11 11 11 13 13 13 12 13 13 14 13 12 10 9 10 8 2 2 3 4 4 4 8 10 13 14 15 13
16 12 12 11 11 11 11 11 10 10 9 9 8 9 9 11 11 11 12 12 13 12 14 15 16 16 15 13 13 15 11 7 5 6 6 8 9 10 13 16 17 16 14
14 12 8 8 12 14 14 12 11 11 9 7 7 6 8 9 8 9 10 10 10 11 12 13 17 20 20 19 18 16 17 13 13 13 12 14 14 14 16 19 19 19 16
19 14 7 10 12 10 8 6 6 8 6 7 7 7 4 5 5 6 7 10 11 12 13 14 16 19 21 21 21 20 20 17 15 15 17 16 15 13 15 18 21 21 19
20 15 13 13 10 10 7 6 5 4 3 2 4 5 1 3 4 6 7 9 11 11 14 15 17 18 23 23 21 20 19 19 18 16 15 17 18 19 18 19 19 20 19
21 16 15 9 7 10 7 6 9 5 3 4 1 1 2 2 3 3 3 5 7 9 12 15 17 20 23 25 23 22 22 21 20 19 17 17 17 20 23 24 24 22 19
23 23 18 14 13 9 7 7 6 7 6 6 7 6 3 4 4 4 5 5 6 8 11 14 17 20 23 23 22 23 24 23 23 23 23 22 22 20 18 21 22 21 21
28 27 23 16 13 8 8 7 7 11 9 10 9 8 7 8 10 9 9 10 11 14 16 18 20 23 25 24 25 23 22 23 23 24 25 25 26 27 25 21 21 21 21
30 28 25 19 4 9 8 8 6 9 8 8 8 9 10 12 14 15 15 15 18 20 21 24 26 28 30 30 30 28 26 25 25 25 25 25 26 31 31 28 24 22 21
29 31 28 21 10 8 12 10 8 7 8 9 8 9 12 14 19 17 15 18 21 23 31 29 30 33 33 33 33 32 31 30 31 32 32 32 31 26 28 32 30 27 25
21 30 25 17 7 4 12 12 8 8 7 8 8 7 9 11 12 15 19 21 26 29 30 30 31 29 30 31 34 35 34 34 32 29 28 28 29 29 28 29 32 32 30
21 24 21 16 11 13 13 12 11 8 6 4 3 4 5 8 11 13 16 20 23 26 27 30 30 31 33 34 36 37 35 34 33 32 28 26 24 26 27 27 28 35 35
21 20 15 14 15 15 14 12 9 9 4 2 3 3 7 10 13 18 23 25 25 26 25 26 30 35 36 37 39 36 35 32 22 26 25 20 26 28 22 23 25 26 36
18 16 15 13 11 9 5 4 2 0 3 5 8 10 13 17 21 24 25 26 26 28 29 32 34 32 29 26 29 33 22 35 23 20 25 26 31 30 28 25 25 26 25
10 9 10 11 10 8 4 1 3 6 10 14 18 21 24 26 27 27 27 29 30 30 27 23 22 21 21 20 23 24 18 15 35 28 30 29 27 28 30 30 25 20 24
8 7 6 7 9 10 10 12 14 15 17 22 22 20 20 22 25 28 30 27 24 26 24 22 20 21 23 25 25 26 28 29 24 33 26 33 29 28 29 29 31 28 20
6 6 8 10 11 12 15 15 14 15 16 16 15 18 21 27 30 30 24 26 32 33 25 19 21 21 20 20 19 22 25 25 25 25 28 19 31 27 24 21 19 19 19
4 4 2 4 6 9 12 15 15 16 16 18 20 24 27 30 31 26 27 31 37 29 24 24 26 24 23 25 25 24 25 23 20 18 24 30 21 24 20 15 14 14 14

GFSSE_850_spd_027.txt.gz
Wind_Speed
21 20 16 13 12 10 10 10 10 10 10 10 10 9 9 8 7 7 6 6 6 6 7 7 7 6 5 5 6 7 7 7 7 6 5 7 5 4 3 3 2 1 1
23 21 17 14 13 12 11 10 10 10 10 10 9 9 9 9 9 8 8 9 9 9 9 9 9 8 6 6 6 6 6 6 5 3 5 8 7 3 5 5 3 2 3
23 21 18 15 13 11 10 10 10 10 9 9 9 9 9 8 8 8 8 9 9 10 11 11 11 12 11 10 8 7 5 4 4 3 4 6 5 2 1 5 6 6 5
24 21 17 15 13 11 10 10 10 9 9 9 9 9 8 8 8 8 9 9 10 11 11 11 11 12 12 12 11 9 7 5 2 2 3 4 3 3 4 3 8 11 8
23 20 17 15 12 11 10 10 9 9 8 8 8 8 8 8 8 8 9 9 10 10 11 11 11 11 10 10 9 8 7 5 3 2 3 3 3 5 8 9 11 7 10
22 19 17 14 13 11 9 8 7 7 7 8 8 8 8 8 8 9 9 9 9 9 10 10 10 9 9 9 8 7 7 6 3 1 2 3 3 3 6 8 6 7 8
22 19 18 14 11 9 7 6 6 8 9 9 9 9 8 9 9 10 10 10 10 10 10 10 12 12 10 9 8 9 9 7 3 2 1 2 3 4 5 7 10 9 7
22 20 17 13 9 8 7 7 9 10 10 9 9 9 10 10 10 11 11 11 12 12 13 13 14 14 14 12 11 12 12 8 4 3 2 2 3 5 6 7 9 11 13
20 17 14 12 10 9 9 10 10 10 10 9 10 10 11 11 11 11 11 12 13 12 13 15 17 17 16 14 14 14 12 10 9 7 5 4 4 6 6 8 11 14 16
17 13 11 12 12 12 11 11 11 10 9 9 10 10 9 8 9 10 11 11 12 13 13 14 16 18 19 20 19 17 15 13 11 11 11 11 10 9 10 11 11 14 16
16 13 12 13 14 14 13 13 12 11 10 9 8 6 7 6 7 7 9 9 10 11 11 12 14 16 18 19 19 19 18 16 15 14 15 15 16 15 13 13 13 14 16
17 15 11 13 12 13 12 12 10 9 9 7 6 5 3 3 5 6 7 6 7 8 8 9 10 12 14 18 19 18 19 18 17 15 16 16 16 17 16 15 16 17 17
17 16 13 14 12 11 9 8 7 5 7 4 3 3 2 3 4 5 4 4 5 6 7 9 11 13 15 18 20 17 17 18 18 18 16 16 17 17 19 21 22 20 20
20 16 15 15 14 11 7 5 3 3 3 1 0 3 4 5 6 5 5 5 7 9 10 13 15 17 19 21 23 22 20 19 17 17 17 18 20 20 20 20 20 21 20
23 19 16 17 15 11 7 6 5 5 5 4 3 4 6 6 7 7 8 9 11 13 16 18 19 22 25 26 25 25 25 23 20 20 20 19 20 20 22 23 24 22 21
26 22 20 19 14 11 7 5 4 7 7 5 6 5 7 8 9 12 13 12 12 15 18 19 22 26 26 29 30 29 28 25 23 23 22 23 23 24 24 25 26 26 24
28 25 23 19 15 8 9 6 3 5 6 4 5 8 10 12 11 11 12 13 15 17 20 22 26 29 31 32 30 30 29 27 26 27 28 29 30 30 28 24 27 28 28
29 29 26 23 14 7 12 9 6 7 8 7 10 13 15 14 13 14 15 15 17 20 24 28 32 36 35 36 35 33 32 30 28 26 25 24 24 26 28 29 29 26 28
32 33 30 27 10 8 9 8 8 9 9 9 11 12 12 13 14 16 17 18 21 24 29 33 32 35 36 36 38 37 34 33 31 28 25 23 24 26 26 25 27 29 29
30 36 25 15 13 7 11 9 9 8 7 6 7 8 9 11 14 16 18 22 26 29 32 33 35 36 36 39 38 34 31 28 24 20 18 20 21 21 22 23 24 24 25
23 23 19 13 9 7 7 7 8 7 3 3 5 7 10 13 16 21 24 27 31 33 32 34 35 34 32 30 33 35 35 13 20 24 20 21 26 25 26 26 25 25 26
16 8 7 6 5 3 3 1 1 2 5 7 11 14 18 21 25 27 28 32 33 31 30 28 27 27 26 24 26 30 19 34 17 27 32 22 30 30 31 32 32 31 27
14 14 12 11 7 4 1 3 5 9 12 14 17 20 20 22 24 26 30 29 25 24 27 26 23 23 24 24 24 19 17 13 38 28 36 28 33 31 29 29 29 30 31
13 11 8 7 7 7 9 10 10 12 15 16 17 18 20 23 27 31 31 26 26 29 32 25 21 20 20 19 18 19 21 24 21 25 19 29 28 28 28 24 22 21 21
8 5 4 3 1 3 6 11 12 12 13 14 14 16 22 29 30 31 27 27 28 31 28 25 24 21 19 20 21 24 24 24 22 21 26 16 25 28 25 19 15 14 13
9 3 2 2 4 8 12 14 14 14 14 14 16 21 26 26 28 28 27 27 27 28 26 23 23 20 19 20 20 19 19 18 23 24 27 34 30 33 28 18 11 9 9

GFSSE_850_spd_030.txt.gz
Wind_Speed
24 21 18 16 14 14 13 12 12 12 12 11 10 9 9 8 7 7 6 5 6 7 7 7 7 6 6 6 7 7 6 7 8 8 8 7 5 4 4 5 5 4 4
23 21 19 16 15 14 13 12 11 11 10 10 10 9 9 8 8 9 9 10 10 10 11 11 10 9 8 7 7 8 8 7 7 7 7 7 4 4 2 4 5 4 2
22 21 19 17 15 14 12 11 10 10 10 10 9 9 10 10 10 11 11 13 12 12 13 13 12 12 11 11 10 8 8 7 6 7 6 5 4 2 3 5 4 8 8
22 21 19 17 14 13 11 11 10 10 10 9 9 9 10 10 11 12 13 13 11 12 12 12 12 11 11 10 10 9 8 6 6 5 5 3 3 2 4 4 8 10 8
22 20 18 15 13 12 11 10 10 10 9 9 9 9 10 10 11 12 12 11 10 10 10 10 10 11 10 10 10 10 9 8 5 4 4 3 2 4 5 5 9 9 8
21 19 16 14 13 12 10 10 9 9 9 10 10 11 10 11 12 12 11 10 10 10 11 11 11 11 10 11 11 12 11 10 7 5 3 2 4 5 6 6 6 7 8
21 19 16 14 12 11 9 9 9 10 11 12 11 11 11 12 12 12 14 14 14 14 15 16 16 16 15 13 13 13 14 12 10 7 4 3 4 5 6 8 7 9 9
20 18 16 14 11 9 9 9 10 12 13 13 12 12 12 12 13 14 14 15 15 15 17 18 19 19 18 16 16 16 15 12 10 10 7 6 8 9 7 6 8 9 10
19 18 15 13 11 9 9 11 12 12 13 12 12 12 12 12 12 13 14 14 14 14 15 15 16 17 17 18 19 18 16 16 13 11 10 10 10 13 13 12 12 13 14
19 15 12 11 11 12 13 13 12 12 12 12 11 10 9 11 11 11 12 11 12 11 11 11 12 13 15 15 15 16 17 17 16 14 12 12 14 14 16 18 18 17 17
18 13 12 12 14 14 14 14 12 12 12 11 9 8 7 8 8 8 7 8 8 7 7 7 8 9 11 13 15 15 15 15 15 14 15 15 15 13 13 14 16 18 20
17 15 15 15 15 15 14 14 13 12 11 9 8 6 5 4 6 5 3 3 4 4 5 7 8 10 14 17 18 18 18 17 16 16 15 13 14 15 16 16 16 19 21
15 16 15 14 13 13 12 12 12 10 8 6 6 4 2 2 3 2 2 3 5 6 8 10 12 13 16 19 22 22 21 19 19 18 16 17 15 15 16 17 17 19 18
18 16 15 15 13 12 11 8 7 7 5 3 2 3 4 3 5 6 6 7 8 9 9 10 13 14 16 20 23 25 25 25 22 20 19 19 19 19 19 18 20 20 21
18 18 15 15 13 11 10 9 6 5 4 3 1 2 2 2 4 5 7 10 11 10 11 13 14 16 19 24 26 28 28 27 25 23 21 20 21 21 22 22 22 23 23
18 17 15 14 12 10 6 7 9 9 7 7 6 7 6 6 7 8 8 10 11 13 15 17 19 22 26 27 27 29 31 29 27 25 24 24 24 25 25 26 26 26 27
18 19 19 16 13 12 11 9 6 8 10 9 10 11 10 10 9 10 11 12 13 15 17 20 22 25 28 31 34 36 34 33 31 28 26 26 25 24 24 26 28 31 29
23 24 22 19 16 12 11 9 4 14 11 11 12 12 11 11 13 13 13 14 16 19 23 26 31 33 35 38 39 37 34 32 29 28 26 24 24 23 23 24 24 26 29
27 29 27 23 15 8 8 11 6 10 10 9 9 10 11 12 12 12 15 18 22 26 31 35 36 36 37 36 34 31 29 27 27 25 23 21 21 21 22 23 23 24 23
29 31 31 26 17 17 11 8 8 6 3 2 6 6 7 10 14 18 21 25 29 33 36 35 34 33 33 32 31 30 28 26 23 17 21 25 25 25 26 26 27 27 25
20 21 25 16 13 3 9 5 1 6 5 4 5 8 12 17 20 21 25 28 31 33 31 31 31 31 30 31 32 34 32 17 17 26 16 21 31 28 29 30 31 32 33
11 9 5 8 12 9 2 4 6 7 9 12 13 11 17 20 19 23 27 30 29 27 26 27 27 26 25 27 27 29 16 25 11 20 32 26 26 26 27 26 28 29 30
12 16 15 12 9 6 6 7 6 7 9 12 14 14 17 17 21 25 27 27 26 26 25 26 25 24 24 21 20 18 11 9 25 14 28 23 27 30 25 26 24 23 22
16 14 10 9 7 4 6 7 9 9 11 11 12 14 14 18 24 25 29 27 25 25 24 25 23 21 19 18 18 16 16 19 14 19 16 26 25 29 30 25 21 16 15
11 8 5 2 2 1 4 7 9 10 10 10 10 11 17 21 24 25 26 25 27 26 27 29 26 23 20 21 20 21 21 21 17 19 27 25 21 21 19 22 16 13 10
9 3 3 5 2 6 9 11 12 11 10 9 12 17 22 22 25 26 28 29 30 28 26 25 23 20 19 20 18 18 18 21 22 20 20 24 26 27 23 19 15 12 13

GFSSE_850_spd_033.txt.gz
Wind_Speed
23 22 21 18 15 14 14 15 15 15 14 13 13 11 10 9 7 6 6 6 6 6 6 6 5 5 5 5 5 6 7 8 8 9 7 6 4 4 4 7 7 5 4
23 22 21 19 17 15 14 14 14 13 13 13 12 10 9 9 8 9 9 9 10 10 10 10 11 10 9 8 7 7 7 7 7 7 7 6 4 2 2 5 5 6 7
23 21 20 18 16 15 15 14 14 13 12 11 11 11 11 11 11 11 12 12 12 12 12 12 12 11 11 11 11 10 10 9 8 7 6 5 4 3 4 5 4 8 6
23 22 20 17 16 15 14 13 13 12 12 12 12 12 12 12 13 13 12 12 11 11 11 11 11 11 11 12 12 11 11 10 9 7 5 4 2 3 4 5 8 8 7
22 21 20 18 16 13 13 12 12 11 11 12 13 13 12 13 13 13 12 11 11 11 12 11 11 10 11 11 12 13 12 11 9 9 6 4 4 4 3 5 6 7 6
22 21 19 16 14 14 13 12 11 11 13 14 13 12 14 14 13 12 12 12 12 13 14 15 15 15 14 14 14 14 13 13 11 9 8 6 6 6 6 5 5 6 7
22 20 18 15 14 13 11 11 12 14 15 15 13 14 14 14 15 14 15 15 16 17 18 18 18 17 16 16 16 17 15 13 12 9 9 8 8 9 11 9 7 7 8
21 20 18 16 13 11 12 12 14 16 16 15 15 15 15 16 15 15 15 15 15 15 16 17 17 17 17 17 18 19 18 16 14 10 9 10 11 11 12 12 10 10 11
20 19 18 15 13 12 12 13 15 15 15 15 15 14 14 14 14 13 13 13 12 13 12 12 12 13 14 14 16 17 18 19 18 15 13 11 11 13 14 15 15 14 14
20 17 14 14 14 14 14 15 15 15 15 15 13 13 12 12 11 10 11 10 9 9 8 8 8 10 12 13 14 15 15 15 15 16 17 15 13 11 11 13 15 14 14
19 16 15 14 14 15 15 15 14 15 15 13 11 11 10 9 8 7 7 6 5 4 5 6 7 9 10 12 15 16 17 17 17 16 16 17 17 16 14 12 12 14 16
19 17 15 15 14 15 14 14 15 14 13 11 9 9 7 6 5 3 3 3 2 3 5 6 7 9 10 13 17 20 21 22 20 19 18 18 18 18 18 18 16 14 14
19 17 16 16 16 14 14 14 13 12 10 8 6 5 4 3 2 2 2 1 2 4 6 7 9 12 13 16 20 23 24 25 25 25 22 20 20 21 21 21 21 21 19
18 17 17 16 15 14 14 11 9 8 7 5 4 3 3 4 4 3 4 3 4 7 8 10 12 14 15 18 21 24 26 28 30 29 26 22 22 22 22 24 23 23 23
18 16 16 14 14 11 10 9 8 7 6 6 5 4 4 5 6 5 5 6 8 10 11 13 15 16 18 21 23 26 30 31 33 32 30 27 24 24 24 25 26 27 27
17 16 14 14 11 10 9 9 11 11 11 11 11 10 9 8 8 7 9 10 11 12 13 16 19 21 24 27 29 31 32 33 33 32 30 28 26 25 25 25 27 29 30
18 17 16 15 14 12 12 10 8 6 13 15 14 12 12 9 9 9 11 11 11 12 14 17 22 27 29 31 31 30 29 29 27 27 26 25 24 23 23 24 26 27 27
19 20 19 17 14 10 7 2 3 7 17 16 11 10 8 7 8 9 9 10 12 16 21 26 29 28 28 28 28 27 27 27 27 26 25 24 24 24 24 24 25 26 27
19 21 22 21 18 13 3 11 9 16 14 8 5 5 6 6 7 9 10 14 19 24 27 28 27 27 28 28 27 25 24 24 24 24 23 22 24 25 26 28 28 28 28
18 22 24 24 19 9 9 13 13 7 3 2 6 6 4 6 9 12 15 19 24 27 27 26 26 26 26 28 27 26 25 22 16 15 19 25 22 25 30 31 31 31 31
15 15 17 21 14 4 3 12 12 6 3 2 4 6 5 7 10 13 18 23 24 24 25 25 23 25 26 27 26 22 15 7 14 16 13 23 26 26 25 28 29 30 31
3 7 10 9 14 12 12 9 5 1 2 5 5 5 7 10 14 19 22 24 24 23 24 25 24 26 25 25 21 14 9 14 6 18 20 18 20 25 25 26 26 28 27
20 20 18 17 15 14 10 6 3 3 4 7 8 8 9 14 17 21 23 21 21 23 25 26 26 26 23 19 17 9 9 8 22 8 19 14 22 20 20 23 24 22 21
24 20 17 15 12 8 4 2 4 7 8 8 8 8 12 15 19 20 20 20 22 23 24 24 24 21 19 16 17 11 11 12 11 14 11 19 14 21 22 24 24 20 15
19 15 12 11 11 7 5 5 6 7 7 6 7 10 15 18 18 21 21 22 22 24 26 23 18 16 16 14 11 11 12 11 12 14 23 21 21 19 18 17 17 18 15
19 17 16 14 9 6 5 5 6 7 6 6 10 14 17 19 21 21 21 22 23 25 23 18 15 15 16 16 15 14 13 15 16 16 20 21 25 22 20 20 19 19 21

GFSSE_850_spd_036.txt.gz
Wind_Speed
19 21 21 20 19 18 17 15 16 15 14 12 11 9 8 7 7 5 5 5 4 4 5 6 6 7 8 8 8 8 9 9 8 8 6 6 4 4 5 6 9 4 5
21 21 21 19 18 17 16 15 14 14 12 11 11 10 9 8 8 8 7 7 8 9 9 8 9 9 10 10 10 10 10 10 9 8 8 13 8 4 4 6 4 6 4
22 22 20 18 16 16 15 14 14 12 12 11 10 10 10 10 10 10 10 10 9 9 10 10 10 10 10 11 12 12 12 11 11 10 10 7 5 5 7 6 6 7 6
23 20 20 18 16 15 14 13 12 12 11 11 11 11 11 12 12 12 11 10 10 10 9 9 10 11 11 12 11 12 12 13 13 13 9 7 7 8 6 7 7 6 6
20 20 20 19 17 15 14 13 12 11 11 11 12 13 13 13 13 12 11 11 10 11 11 11 11 12 12 12 13 12 12 12 14 13 9 8 5 9 9 10 11 9 7
18 18 20 19 17 16 14 13 12 12 12 13 13 13 13 13 12 12 12 12 12 13 14 14 14 14 15 15 16 16 14 13 15 11 10 10 8 10 12 13 12 11 10
18 17 19 17 16 15 14 13 13 13 14 13 13 14 14 13 13 13 13 14 14 15 16 16 16 16 17 17 19 19 20 19 15 12 10 10 10 10 11 11 12 12 12
20 18 18 16 15 14 13 13 14 15 14 13 14 14 14 14 13 13 13 13 14 14 14 13 13 13 14 15 16 17 18 19 14 13 12 10 14 13 13 13 12 12 14
19 18 16 16 16 13 12 13 15 15 13 14 14 14 13 12 12 11 11 11 11 10 10 9 9 9 10 12 13 15 17 17 14 13 12 10 13 14 14 14 14 13 12
20 15 15 14 14 13 14 15 15 15 14 14 13 12 11 10 9 8 9 8 7 6 5 4 5 6 7 9 12 15 17 18 14 13 13 16 18 17 15 14 14 14 14
19 16 15 14 13 13 13 16 15 15 14 13 12 10 8 6 6 5 6 5 4 2 1 3 5 7 9 10 12 15 16 13 13 14 13 20 20 20 20 18 17 15 15
20 18 15 15 15 16 13 15 15 15 11 8 8 8 5 6 5 4 4 4 3 2 3 6 8 10 9 8 10 15 13 19 14 15 15 23 22 20 21 22 21 21 20
16 14 14 15 16 16 12 11 9 9 10 8 7 7 7 7 6 4 5 5 4 4 5 6 8 10 14 14 16 18 18 16 16 17 18 25 25 23 22 22 24 24 24
15 13 14 15 16 15 11 9 11 8 9 5 6 5 7 6 8 7 6 7 7 8 8 9 11 14 16 18 21 23 22 19 18 20 17 27 26 24 23 23 24 26 27
14 13 13 14 13 13 12 12 11 9 7 9 10 9 8 9 9 8 8 9 9 8 8 9 10 13 16 16 21 24 23 19 18 17 16 24 25 23 22 23 24 26 28
13 12 15 14 13 13 13 12 11 10 10 12 13 12 12 10 9 9 8 8 9 8 10 12 16 18 17 19 17 20 22 19 17 18 16 15 24 23 22 22 23 25 27
13 14 14 16 16 14 12 11 8 4 8 10 15 15 12 9 7 7 7 7 8 10 13 16 19 14 14 15 16 17 16 16 16 16 15 14 14 20 24 24 24 25 26
13 14 18 15 12 11 8 8 7 10 11 15 14 8 7 4 5 5 5 7 10 15 18 18 14 15 14 15 17 18 17 18 18 15 13 15 14 15 16 24 28 27 29
13 16 18 18 16 12 7 4 9 13 8 8 3 1 2 3 3 4 7 12 17 17 19 18 14 15 16 16 19 19 19 20 17 14 12 13 14 15 17 19 28 29 30
15 16 16 18 18 11 5 8 9 10 6 7 3 4 4 4 5 8 13 17 18 13 13 20 19 15 16 17 21 19 20 17 14 11 13 13 15 17 16 19 20 18 24
18 19 12 11 19 12 4 12 13 11 7 5 4 5 5 5 7 11 12 14 14 13 18 19 16 17 18 17 21 21 20 15 14 15 13 18 16 16 19 18 18 20 20
14 13 11 10 11 12 13 13 11 8 7 7 5 8 7 8 11 13 15 10 13 12 13 14 16 18 18 18 17 20 19 19 16 13 20 15 18 18 18 19 20 20 20
18 16 18 16 18 18 16 13 9 8 5 6 9 9 9 9 10 12 16 18 16 15 15 16 16 16 19 18 16 16 19 18 21 20 20 16 19 20 21 21 21 21 20
22 21 19 20 20 19 17 11 10 4 5 6 6 5 4 10 14 18 20 20 18 16 16 17 18 15 16 19 17 16 16 18 21 23 18 19 21 23 23 22 22 21 21
19 18 18 18 15 16 15 8 5 5 5 4 4 4 7 10 16 17 15 16 16 17 18 18 16 17 16 18 15 17 16 16 16 18 21 22 23 21 20 20 22 23 22
16 15 16 15 14 12 9 7 7 4 4 3 4 6 10 12 14 15 16 17 18 20 20 21 20 19 16 17 16 14 15 16 18 19 20 23 27 25 21 22 23 22 23

GFSSE_850_spd_039.txt.gz
Wind_Speed
22 23 22 20 20 19 18 16 14 13 12 10 8 7 6 6 5 6 6 7 7 8 8 9 9 10 10 10 10 10 10 10 9 9 10 11 8 6 6 6 12 7 6
24 25 24 22 21 19 17 15 14 13 10 9 8 7 6 6 6 7 7 8 8 8 8 9 9 10 10 11 12 12 12 13 13 13 11 7 10 10 9 7 5 8 7
23 24 24 22 21 19 17 15 13 12 9 9 8 7 7 7 8 9 8 8 8 8 8 8 9 10 11 11 12 13 13 14 16 18 15 6 11 10 10 10 9 9 9
24 23 24 21 19 18 16 14 12 11 10 9 7 7 8 9 10 9 9 8 7 7 8 9 10 11 13 14 14 14 14 17 18 15 8 9 13 8 10 12 11 10 9
21 20 20 22 19 17 16 13 12 11 10 9 8 8 9 10 10 9 9 8 9 10 11 12 13 14 15 17 18 17 16 17 17 12 9 6 9 9 11 11 13 13 11
23 22 18 18 18 17 15 13 12 11 10 10 10 10 10 10 10 10 10 10 11 12 13 14 15 16 17 18 18 19 18 16 17 10 9 8 12 12 12 12 11 11 11
21 21 22 18 16 15 14 12 12 11 11 11 11 11 11 10 10 11 11 11 12 13 13 13 13 14 15 16 18 18 19 18 16 12 11 9 15 13 12 12 12 11 11
20 20 21 17 15 15 14 13 12 12 12 11 12 11 11 10 10 10 11 11 11 11 10 10 11 11 12 13 15 16 17 17 13 11 10 11 17 16 16 15 12 12 12
22 20 20 18 15 14 13 13 13 13 12 12 11 12 10 10 9 8 8 8 7 6 6 6 6 7 8 10 12 15 17 18 15 12 11 10 21 18 17 17 16 14 12
19 18 17 16 14 13 14 14 14 13 13 13 12 11 9 8 7 6 4 4 3 3 4 5 6 8 10 11 13 15 14 16 14 12 12 14 21 21 19 18 18 17 16
17 16 15 13 12 12 11 14 14 13 13 12 10 9 9 3 5 1 1 0 2 4 6 7 8 9 11 14 17 18 15 13 14 13 14 18 23 24 23 22 20 18 18
17 15 14 16 15 15 12 15 12 13 10 7 5 6 6 4 6 6 4 4 5 7 8 9 10 10 9 8 12 14 13 16 14 15 19 23 27 26 23 22 23 22 21
16 12 12 13 14 13 10 11 10 10 8 6 7 5 6 2 2 3 6 5 5 8 5 7 9 7 12 13 12 14 16 17 17 16 21 25 28 25 22 21 22 23 24
14 13 12 12 14 12 12 10 10 8 7 6 7 3 2 1 5 3 3 4 5 6 8 8 8 12 13 14 15 17 17 18 18 18 17 24 26 24 21 21 21 22 24
14 15 14 13 13 14 11 10 9 6 9 6 4 6 6 4 6 3 5 3 4 5 6 8 10 12 15 16 17 18 18 19 17 16 15 22 25 26 23 22 22 22 23
16 15 15 13 12 11 9 10 8 7 2 5 5 8 10 10 11 5 2 2 3 6 8 10 14 15 16 16 18 18 19 19 17 18 17 17 23 24 25 24 24 24 24
16 16 16 15 14 12 10 10 7 3 3 5 5 11 12 15 15 8 10 9 9 10 12 11 14 14 16 16 18 18 19 18 18 18 19 15 14 22 22 26 27 27 27
16 17 17 17 17 15 12 10 9 7 5 9 10 11 8 4 5 7 7 7 10 13 10 13 13 15 17 18 18 19 21 19 20 20 18 14 15 15 16 21 27 27 30
17 19 17 18 18 16 13 14 9 6 9 21 10 3 2 4 5 3 5 8 11 7 10 12 14 15 17 19 19 20 21 19 21 17 16 15 15 16 17 18 22 23 20
17 20 18 18 20 20 18 11 14 18 15 13 8 4 3 5 4 1 6 10 11 10 10 12 13 15 16 19 21 22 20 21 20 14 14 14 16 18 18 18 19 16 21
18 19 20 21 15 21 17 13 13 12 11 10 7 4 4 3 2 3 2 7 10 9 12 13 14 17 18 19 22 23 22 20 16 18 17 16 17 19 18 19 18 19 19
20 19 19 17 11 16 10 9 9 10 8 7 6 7 6 5 3 4 8 7 9 12 13 14 17 18 19 19 22 22 24 23 17 12 16 22 21 18 21 21 21 21 20
19 19 19 15 13 13 13 13 12 11 10 8 8 5 7 5 3 5 8 11 11 13 14 16 17 19 22 22 18 21 26 22 25 22 23 23 21 21 23 22 21 21 20
20 18 17 18 15 15 16 12 12 8 7 7 8 8 6 8 5 7 10 11 13 15 17 18 19 22 22 23 22 20 21 21 24 29 21 20 20 22 23 22 24 23 23
20 19 17 17 18 17 14 12 10 7 5 5 6 8 6 8 9 11 12 14 15 18 20 22 23 24 23 23 22 20 20 18 18 20 25 23 23 25 26 23 22 23 24
20 18 18 19 17 15 13 10 8 7 6 6 6 7 8 9 12 13 15 16 19 20 21 23 24 24 26 21 19 20 19 18 18 20 22 24 26 27 26 24 26 26 25

GFSSE_850_spd_042.txt.gz
Wind_Speed
23 24 21 20 21 21 19 18 16 15 13 11 9 8 8 8 9 9 10 12 12 13 13 13 14 15 16 16 16 15 16 17 15 12 12 12 11 8 6 6 8 11 9
23 26 23 21 21 21 19 17 16 14 12 9 9 8 8 8 9 11 12 12 12 12 12 13 14 15 16 16 16 17 18 20 15 10 10 11 11 10 9 9 9 9 10
25 26 24 22 22 20 18 16 14 12 10 9 9 8 8 8 10 11 11 11 11 12 12 14 15 15 16 16 17 18 19 18 17 11 8 11 14 12 11 11 12 12 10
24 27 26 22 21 19 16 15 13 11 10 9 8 8 8 9 11 10 10 10 11 13 15 16 18 20 21 21 20 19 20 19 17 15 17 15 15 12 11 12 11 10 10
21 22 25 22 20 19 17 14 12 11 10 9 9 9 9 9 10 10 10 12 14 15 17 19 20 21 21 22 23 19 18 18 18 11 5 10 15 12 11 11 11 11 10
28 22 23 20 19 18 16 13 12 11 10 10 10 10 9 9 9 11 12 13 15 17 17 18 17 17 19 19 20 19 15 18 18 16 11 12 16 16 14 12 10 10 10
24 26 25 20 19 17 15 13 12 11 11 10 10 10 9 9 11 12 12 13 15 15 15 15 14 15 15 16 17 19 17 15 17 13 13 11 19 18 16 15 14 12 11
22 23 21 18 18 17 15 13 12 13 12 10 11 10 9 10 11 12 11 12 12 12 12 11 11 11 12 13 16 18 19 15 15 16 12 12 19 21 18 17 15 14 14
28 25 23 19 17 16 15 14 13 13 12 12 12 11 11 11 10 9 8 8 9 9 8 8 9 9 11 12 14 16 14 14 14 15 19 18 17 23 22 18 17 16 14
28 20 20 21 18 16 15 15 14 13 13 13 13 11 11 10 7 6 5 5 6 6 7 8 8 10 12 15 16 16 11 11 14 14 19 20 22 25 27 24 19 17 16
25 23 20 18 14 13 14 15 14 14 14 14 13 13 12 11 7 6 5 4 5 6 8 10 10 10 11 12 13 15 9 15 13 13 18 22 24 26 27 25 22 19 18
22 20 18 18 14 10 15 15 14 14 13 12 12 12 10 6 1 2 8 7 7 8 8 11 12 9 6 7 8 16 16 19 15 11 18 23 25 26 25 23 21 21 20
22 23 23 23 22 16 11 13 16 13 11 7 5 7 7 3 2 4 7 7 8 9 6 8 9 12 14 14 15 16 20 22 17 14 19 21 24 27 26 24 22 21 21
15 16 18 19 19 12 15 13 10 11 7 6 6 6 3 3 2 5 4 0 4 4 6 5 6 13 12 16 14 20 18 18 19 18 16 19 23 24 26 25 23 21 21
18 18 17 22 19 18 16 17 15 17 12 7 6 6 4 7 5 5 8 5 10 9 9 10 12 16 18 18 16 17 19 21 17 18 19 19 21 24 24 25 25 25 24
20 18 15 20 20 20 19 20 18 15 13 8 5 2 5 10 10 3 5 9 11 11 11 12 15 18 19 15 14 16 20 19 16 18 20 20 20 21 22 21 26 27 27
19 20 21 19 20 21 20 21 20 17 9 4 3 5 8 14 13 12 11 12 11 12 13 16 18 16 16 19 20 17 20 19 16 20 23 19 20 16 19 23 22 26 27
22 21 19 22 23 24 22 21 17 11 7 6 4 8 16 11 9 7 8 9 9 11 15 17 13 20 19 21 21 18 20 24 18 21 19 17 15 16 16 18 21 24 25
23 23 24 25 25 20 16 13 14 13 18 18 17 9 6 4 4 4 7 7 9 7 9 15 22 22 21 19 18 19 23 18 20 20 20 17 15 14 16 19 19 20 15
24 29 24 23 20 17 15 14 15 16 20 21 16 7 7 4 3 3 8 9 11 8 16 22 21 17 18 17 21 20 20 21 17 19 18 17 17 15 15 20 18 15 19
25 23 19 19 19 19 17 15 14 17 10 12 12 8 6 3 5 5 6 7 11 12 12 13 15 18 19 20 22 27 22 20 18 15 13 11 15 21 20 16 20 23 21
24 22 21 20 15 14 14 12 9 9 9 8 9 9 8 7 7 4 8 7 10 15 15 12 17 22 21 16 23 25 26 26 17 18 21 21 17 21 18 20 26 23 21
22 25 20 21 16 15 10 10 10 10 9 11 9 10 13 8 3 3 7 10 15 15 12 16 18 18 21 26 24 21 25 19 26 25 25 28 28 25 24 21 20 21 23
22 17 16 16 14 14 16 14 12 14 13 12 11 6 11 9 9 6 10 15 16 16 18 18 20 24 28 27 26 24 25 28 24 24 21 23 20 19 22 25 25 21 24
22 21 19 16 19 19 19 15 14 10 14 15 13 14 10 7 12 9 10 11 14 14 16 20 21 20 22 25 26 27 26 24 24 23 25 20 23 22 25 22 21 21 25
21 20 23 21 23 20 17 16 15 13 10 12 11 9 6 9 9 10 14 16 19 22 26 24 26 26 26 26 30 30 23 20 18 20 23 22 22 26 23 21 27 29 26

GFSSE_850_spd_045.txt.gz
Wind_Speed
27 25 24 24 24 22 20 20 19 18 16 15 13 12 12 14 14 16 17 17 17 18 18 17 18 18 19 20 21 21 19 18 17 17 17 17 14 14 12 12 11 12 13
33 26 25 26 25 23 21 20 18 16 15 14 13 12 13 14 16 17 17 17 17 17 18 18 19 20 21 22 22 22 19 15 14 14 17 19 16 14 12 12 12 12 13
31 28 27 29 27 24 22 20 17 15 14 13 13 13 15 15 16 17 16 16 17 18 20 22 23 25 24 24 24 22 18 14 13 11 15 17 20 16 13 13 12 12 12
32 31 29 28 27 24 22 19 17 14 13 12 13 15 16 15 15 16 16 17 19 21 23 25 25 26 27 24 23 22 26 25 15 14 14 16 19 15 13 13 12 11 11
32 32 30 28 26 23 21 18 16 14 12 13 15 15 15 15 15 16 18 19 21 22 22 23 23 24 25 24 19 20 23 24 17 14 12 15 18 18 16 14 13 12 10
35 34 29 27 24 22 20 17 16 15 13 14 15 15 15 15 16 17 19 20 20 21 20 20 20 20 21 21 21 17 18 23 14 16 16 13 18 22 18 15 14 13 11
31 32 30 25 23 20 19 17 15 15 14 15 15 15 15 15 16 18 18 19 18 18 16 16 16 16 17 18 19 18 12 15 21 16 14 18 19 20 22 19 16 13 12
30 30 29 24 19 14 17 16 15 16 16 16 15 15 15 16 16 17 16 16 15 14 13 12 12 13 14 14 15 16 15 14 19 16 18 18 21 22 23 23 18 14 13
30 27 24 21 19 17 16 16 17 16 16 16 16 16 16 16 15 14 13 12 11 10 9 10 10 11 12 14 14 11 10 13 11 14 18 18 21 23 25 24 21 15 12
29 26 24 19 17 17 17 16 17 17 17 18 17 16 15 14 13 12 9 8 7 7 8 9 10 8 9 10 10 10 13 14 12 11 14 16 20 23 25 24 20 16 14
29 24 23 19 16 16 16 17 17 17 18 18 17 16 14 13 12 12 7 5 5 6 7 10 8 5 6 8 11 13 15 16 18 13 15 17 20 23 23 23 20 18 17
25 21 22 20 18 18 19 19 18 19 19 19 16 13 10 9 6 6 7 6 6 6 7 8 5 5 8 12 13 16 19 22 19 16 17 19 19 21 23 23 22 20 17
23 22 23 22 19 20 20 21 21 20 20 18 12 13 8 5 3 1 4 5 6 4 2 1 4 8 12 12 11 14 18 17 18 17 17 17 19 20 22 23 22 21 20
28 27 24 21 18 16 21 23 20 16 14 15 14 13 11 8 4 4 7 7 7 6 7 8 9 11 13 14 14 12 14 17 19 13 14 19 17 21 22 20 19 21 23
31 31 28 25 18 23 23 21 19 17 15 15 13 11 11 12 10 9 9 10 10 10 9 10 11 13 15 16 14 13 15 18 18 12 14 17 20 20 20 17 20 21 20
28 26 29 26 22 21 20 21 22 21 17 13 10 10 13 12 11 10 11 11 12 10 9 10 13 16 15 17 16 15 14 17 15 14 16 20 20 20 15 17 20 20 17
23 19 30 27 29 23 26 23 21 19 15 11 14 13 11 10 8 9 11 10 10 9 10 13 15 15 18 16 17 12 13 17 19 19 15 13 15 14 14 15 16 19 19
21 17 25 29 29 25 24 24 21 18 16 17 14 9 8 5 7 8 11 9 7 9 13 15 16 19 19 19 20 16 17 20 21 15 14 10 16 16 11 11 15 18 16
18 21 26 28 26 24 23 24 22 21 19 13 11 6 4 4 4 6 4 6 8 10 12 14 19 23 23 24 20 22 21 18 17 13 14 8 3 7 12 17 20 21 18
26 23 23 27 27 26 21 21 21 20 16 16 12 10 8 7 6 5 5 6 9 10 12 17 18 19 22 25 23 20 24 26 10 12 9 7 8 10 9 13 15 17 20
29 24 24 25 27 25 23 18 18 18 19 18 17 15 11 7 5 3 7 8 8 12 15 15 16 20 24 24 27 32 34 21 23 11 15 16 19 19 16 15 20 23 17
31 28 27 26 25 22 20 16 14 15 15 10 12 11 10 8 5 7 9 11 12 16 18 18 19 22 22 21 26 33 24 33 21 15 18 25 30 28 25 21 13 13 19
34 34 24 22 16 19 16 16 15 13 14 15 13 11 9 8 8 8 11 14 17 18 19 21 21 22 23 25 26 23 22 18 32 29 26 28 28 23 20 18 19 21 17
31 26 22 16 14 16 16 15 17 19 17 12 5 7 10 10 6 9 13 14 15 15 17 20 23 24 26 25 24 23 24 27 31 29 15 26 22 22 22 24 24 23 19
25 24 16 13 16 21 21 16 16 13 8 9 11 11 10 8 8 11 10 11 13 15 19 21 24 29 26 27 26 24 27 28 28 28 29 22 26 22 21 21 22 23 25
27 21 14 17 21 20 21 20 15 14 17 18 20 19 14 7 11 14 13 14 16 18 22 27 28 25 26 26 26 25 29 25 24 22 23 26 23 24 21 21 23 23 22

GFSSE_850_spd_048.txt.gz
Wind_Speed
29 29 29 32 29 26 24 23 22 20 19 16 15 15 17 17 19 20 20 20 20 21 21 22 22 22 23 23 20 17 17 17 19 21 21 22 19 16 16 14 14 14 13
34 32 33 33 30 27 24 23 21 19 18 16 16 17 19 19 19 20 20 21 22 23 25 25 25 25 25 22 20 17 16 14 17 19 21 22 19 16 15 14 14 13 13
35 34 34 32 31 27 25 24 21 19 17 17 17 19 20 19 19 20 21 22 25 27 29 29 28 27 25 25 25 24 24 20 18 20 22 23 23 19 15 14 12 12 12
36 36 36 35 30 27 25 23 20 19 18 18 19 20 21 19 20 22 23 25 26 27 28 29 29 26 23 25 28 25 21 20 18 18 19 21 23 22 18 16 13 11 11
35 35 34 33 30 27 24 21 19 19 18 19 20 19 20 20 22 23 24 25 25 25 26 26 26 26 21 21 24 24 19 16 17 19 19 20 21 23 22 18 15 13 12
35 34 34 33 30 26 23 19 18 19 18 19 20 20 20 22 23 24 24 23 24 23 22 21 21 20 20 20 18 19 19 17 16 18 18 19 21 20 20 21 17 13 12
37 37 33 30 29 25 22 19 18 17 19 19 20 20 20 23 24 23 22 21 21 19 18 17 16 16 15 14 16 16 17 14 11 16 18 19 20 21 21 22 20 15 11
32 30 29 27 25 23 19 17 17 18 20 21 20 20 21 23 23 21 20 18 17 15 14 12 11 11 11 12 11 13 14 13 12 14 17 19 19 20 21 22 20 14 10
23 23 26 27 22 16 16 17 17 18 20 20 20 21 21 20 19 17 16 14 13 11 10 8 8 9 8 9 11 11 10 12 13 14 14 16 19 21 22 21 19 14 11
27 28 28 39 29 12 14 17 18 19 20 21 20 20 19 18 15 13 12 10 9 9 8 7 8 8 7 9 11 12 13 12 16 14 13 14 17 22 23 22 20 19 16
22 21 28 26 23 19 19 18 19 20 21 20 20 19 18 16 14 11 9 8 9 7 6 5 4 3 4 9 12 15 16 16 16 16 15 15 16 18 21 21 21 19 17
27 25 25 21 24 24 22 21 22 22 21 21 17 17 15 14 11 12 13 12 9 7 4 1 2 3 7 9 11 15 16 17 16 18 15 14 16 18 20 24 22 19 18
31 28 28 25 23 23 24 23 23 23 22 18 16 14 13 10 11 10 10 6 4 3 2 3 3 6 8 9 12 13 15 15 16 17 12 10 13 15 13 22 18 19 19
28 26 23 23 22 22 22 23 23 23 21 18 15 13 11 11 9 12 11 8 6 4 4 4 6 8 10 12 12 13 14 14 15 16 12 11 14 16 15 16 14 14 17
27 25 25 22 23 22 23 24 24 22 18 17 14 13 12 11 8 9 9 8 9 6 6 9 9 10 11 12 12 11 12 13 13 12 15 15 16 16 13 10 7 7 10
29 29 28 23 20 24 25 24 22 19 16 14 14 14 13 12 11 9 7 9 9 9 10 10 10 11 12 13 11 11 10 12 15 15 14 14 10 8 10 12 13 10 11
28 28 29 24 27 27 25 23 19 17 18 17 15 13 15 13 11 12 10 10 9 9 8 9 10 11 13 12 14 13 13 16 17 17 15 10 7 3 5 7 9 12 13
34 32 31 29 29 26 25 22 22 21 21 18 16 16 12 10 11 13 10 9 7 8 8 10 12 15 15 18 19 18 16 13 18 12 11 7 3 2 4 7 11 11 12
33 35 35 32 30 25 25 25 24 24 21 17 15 12 8 7 8 9 9 8 7 8 9 11 16 18 18 20 20 18 16 20 13 8 10 6 3 4 4 5 8 10 13
30 29 33 33 32 29 28 27 25 22 20 17 15 11 8 8 10 10 10 9 8 7 9 14 16 16 18 20 20 18 24 23 2 19 13 12 13 13 15 17 19 20 17
32 29 30 32 35 31 29 26 25 24 23 21 18 13 11 11 11 11 9 8 7 8 12 15 14 16 18 22 25 28 31 10 22 10 8 17 21 24 26 25 21 17 12
32 29 27 28 29 29 27 26 25 22 22 20 17 16 15 14 12 11 8 7 10 11 14 14 17 19 22 23 26 28 13 27 6 23 23 15 28 22 22 19 16 16 19
37 31 26 24 25 26 26 26 25 22 20 21 18 18 17 15 11 8 8 10 12 14 15 17 21 24 25 26 25 18 13 9 32 24 24 23 16 25 22 19 21 20 20
38 34 30 27 26 24 28 29 26 24 23 18 16 16 16 14 10 9 13 12 13 16 18 22 24 24 26 28 25 21 20 22 24 25 19 23 24 20 19 21 23 22 22
40 37 32 29 25 22 29 27 22 22 18 15 18 18 16 14 13 12 11 11 16 18 19 20 22 25 29 28 26 25 24 23 23 25 31 27 24 22 20 20 22 23 24
37 34 29 26 20 21 27 23 18 18 19 20 21 20 17 18 16 16 15 16 18 18 19 21 25 27 27 27 25 23 22 22 21 24 28 26 25 26 18 19 18 21 23

GFSSE_850_spd_051.txt.gz
Wind_Speed
28 28 30 31 30 28 26 24 22 21 20 18 18 19 20 21 22 22 22 22 22 22 23 24 25 23 20 20 20 20 21 21 21 22 24 21 17 16 15 14 13 13 12
32 30 33 32 30 28 26 24 23 20 19 18 21 23 23 23 22 24 24 26 26 26 27 27 26 25 24 23 22 21 21 20 22 23 23 24 22 17 15 13 13 13 12
33 32 34 32 30 28 26 25 22 20 19 20 22 23 24 23 24 26 28 31 30 30 29 27 26 26 26 26 25 22 20 20 21 22 22 23 24 21 18 15 13 12 12
33 34 35 34 32 30 29 24 21 19 19 21 23 22 23 24 26 29 30 31 31 31 28 25 24 25 25 22 21 20 21 20 19 19 20 20 20 21 21 18 15 13 11
32 34 34 33 31 28 27 24 21 19 20 21 22 22 23 26 28 29 29 30 30 30 28 25 23 23 23 24 21 19 16 15 16 16 17 18 18 18 19 20 17 14 12
31 33 33 30 31 28 25 23 21 20 21 21 22 23 25 27 29 28 28 27 26 25 24 22 19 18 19 19 18 17 14 12 13 14 15 17 18 17 18 19 17 14 11
31 35 35 32 30 27 24 22 21 20 21 21 22 24 26 27 27 26 25 24 22 20 18 16 15 15 16 16 16 15 14 13 13 15 15 16 16 18 20 20 18 15 11
24 31 35 30 28 25 24 21 20 20 20 21 23 25 26 27 25 24 22 20 18 16 14 12 12 12 13 13 13 12 12 12 14 15 15 16 16 17 18 18 17 15 13
18 29 30 29 28 20 21 19 15 17 20 21 23 24 25 24 22 20 18 17 14 12 10 9 9 9 8 10 11 11 11 12 15 14 15 16 17 18 18 18 18 15 13
17 17 32 32 29 17 15 10 16 18 20 21 23 23 23 21 19 17 15 14 11 9 7 7 7 8 9 10 12 14 12 13 14 14 14 13 15 16 19 19 18 17 15
24 23 30 33 35 24 15 13 16 18 20 21 22 21 20 18 17 15 13 10 7 5 6 6 6 6 8 11 12 13 14 14 14 14 14 12 12 14 18 19 21 19 17
32 34 35 36 27 25 20 20 20 22 23 21 21 21 19 18 15 12 11 9 5 4 4 3 5 5 8 10 12 14 15 14 13 14 12 10 10 10 15 17 22 20 17
24 24 28 26 29 22 22 21 23 22 22 21 20 20 17 15 13 11 8 7 5 1 1 2 5 7 9 9 11 12 13 13 13 13 13 10 9 7 9 11 16 19 19
32 32 31 28 22 21 22 22 22 22 22 20 19 17 15 14 12 10 8 3 2 2 2 3 4 8 9 9 10 12 13 14 13 14 13 13 13 10 5 9 9 10 18
29 26 23 22 21 21 21 23 25 23 21 17 17 15 14 13 9 10 7 7 7 6 4 6 6 7 9 10 11 10 10 11 12 13 14 13 12 7 5 5 7 5 12
27 24 23 22 22 23 24 26 25 23 19 16 13 13 11 9 8 8 7 9 9 8 7 9 8 8 10 10 10 11 10 12 13 15 15 9 7 1 4 5 6 4 6
26 26 25 22 25 25 26 26 25 21 19 17 15 12 9 9 9 9 10 10 10 9 9 8 7 9 10 9 11 12 12 12 17 16 13 9 5 5 7 5 7 8 7
29 30 28 25 25 26 28 26 25 22 20 18 14 13 13 13 12 13 13 11 11 10 8 7 8 11 11 14 16 17 14 16 17 10 11 10 3 3 5 7 9 10 11
28 29 29 28 26 29 30 28 25 22 20 17 16 16 14 13 14 13 14 13 13 10 7 8 12 12 14 16 18 17 20 18 5 6 13 7 5 5 7 12 15 17 18
28 28 30 29 28 29 29 27 25 24 23 22 19 17 14 13 13 16 16 13 10 7 8 11 12 13 14 17 19 18 22 9 4 19 5 6 14 16 19 23 21 19 16
33 34 34 32 33 33 32 31 30 28 26 23 20 17 14 13 15 15 13 10 8 9 11 12 11 12 15 19 23 26 18 5 12 5 5 23 12 17 20 17 19 17 15
35 35 36 35 34 35 32 29 30 28 26 22 19 17 15 14 15 14 12 11 11 11 11 12 11 14 18 22 24 24 13 19 8 8 24 17 17 15 17 22 18 18 19
39 37 32 35 35 33 32 31 29 28 25 24 22 22 19 17 17 14 11 10 10 10 13 12 15 18 21 23 24 21 10 7 24 17 21 13 18 20 20 18 18 19 21
44 40 36 35 36 36 34 32 32 31 31 26 24 22 19 18 16 13 12 11 10 12 14 15 17 19 23 24 25 23 20 19 16 17 13 23 20 20 16 21 20 19 20
45 43 40 39 35 35 35 34 33 32 28 23 20 20 20 20 19 16 14 14 14 14 16 19 18 20 24 25 23 22 21 21 20 22 25 20 25 26 19 17 18 20 21
46 44 42 40 36 35 33 32 33 32 27 23 23 24 22 22 20 18 17 16 12 12 15 18 21 23 24 22 21 19 19 20 20 20 26 30 26 22 18 15 15 17 21